Simultaneous Nadir Overpasses (SNOs) Predictions

Prediction of SNOs between LANDSAT-8 and METOP-B Satellite Orbit:

Table of predicted SNOs for the next 14.0 days since TLE Epoch: 9/1/2017
Index Date (LANDSAT-8) Time (LANDSAT-8) Lat,Lon (LANDSAT-8) SZA (LANDSAT-8 ) Date (METOP-B) Time (METOP-B) Lat,Lon (METOP-B) SZA (METOP-B ) Distance(km) Time Diff (sec)
1 09/03/2017 02:47:10 81.20, 179.40 75.90 09/03/2017 02:46:20 81.20, 179.48 75.88 1.44 50
2 09/03/2017 03:36:36 -81.22, -12.65 104.05 09/03/2017 03:37:00 -81.21, -12.71 104.05 1.06 24
3 09/05/2017 22:21:25 81.21,-114.02 76.98 09/05/2017 22:20:40 81.20,-114.18 76.93 2.98 45
4 09/05/2017 23:10:51 -81.23, 53.96 102.97 09/05/2017 23:11:19 -81.22, 54.03 102.95 1.24 28
5 09/08/2017 17:55:41 81.19, -47.84 78.01 09/08/2017 17:55:00 81.20, -47.85 78.00 0.62 41
6 09/08/2017 18:45:07 -81.21, 120.16 101.93 09/08/2017 18:45:40 -81.21, 120.00 101.93 2.80 33
7 09/11/2017 13:29:55 81.20, 18.68 79.11 09/11/2017 13:29:18 81.20, 18.84 79.12 2.99 37
8 09/11/2017 14:19:21 -81.22,-173.30 100.82 09/11/2017 14:19:58 -81.22,-173.28 100.80 0.34 37
9 09/14/2017 09:04:10 81.20, 85.16 80.21 09/14/2017 09:03:38 81.20, 85.15 80.20 0.42 32




NCC Satellite Simultaneous Nadir Overpasses (SNOs) Prediction Service
